sat.trackr.live / text

‹ back to catalog

STARLINK-5494

NORAD 55650 · 2023-021Y

PAYLOAD ACTIVE UNKNOWN

§ Identity

Operator
Country
US
Launch date
2023-02-17
Launch site
AFWTR
Launch vehicle
Mass (kg)
RCS (m²)

Purposes: comms

External: N2YO · Heavens-Above · Gunter

§ Orbital elements

Epoch: 2026-05-25T00:12:48.808800Z

Period
96.11 min
Inclination
69.9993°
Eccentricity
0.0002334
Mean motion
14.98332647 rev/d
Perigee alt
570.4 km
Apogee alt
573.7 km
Semi-major
6,950.2 km
B*
4.6208e-5
RAAN
352.0140°
Arg perigee
273.5800°
Mean anomaly
86.5092°
Rev number
18,022

§ Raw data

STARLINK-54941 55650U 23021Y   26145.00889825  .00000458  00000+0  46208-4 0  99972 55650  69.9993 352.0140 0002334 273.5800  86.5092 14.98332647180220

JSON: /api/v1/satellites/55650 · /tle

For live sub-satellite position, see the globe view (requires WebGL).

§ Visibility from observer

Set your observer location to see the next 7 days of passes ≥ 10°. The values pass through the URL so the page stays shareable.

No JS? Fill the form by hand. The geolocation button needs JavaScript.